Time,TemperatureF,DewpointF,PressureIn,WindDirection,WindDirectionDegrees,WindSpeedMPH,WindSpeedGustMPH,Humidity,HourlyPrecipIn,Conditions,Clouds,dailyrainin,SoftwareType,DateUTC
2013-08-25 00:01:00,77.4,77.4,30.02,NE,46,0.0,0.0,100,0.01,,---,0.11,VWS V14.01,2013-08-25 04:01:00,
2013-08-25 00:02:00,77.4,77.4,30.02,NE,46,0.0,0.0,100,0.01,,---,0.11,VWS V14.01,2013-08-25 04:02:00,
2013-08-25 00:03:00,77.4,77.4,30.02,NE,46,0.0,0.0,100,0.01,,---,0.11,VWS V14.01,2013-08-25 04:03:00,
2013-08-25 00:04:00,77.4,77.4,30.01,NE,46,0.0,0.0,100,0.01,,---,0.11,VWS V14.01,2013-08-25 04:04:00,
2013-08-25 00:09:00,77.4,77.4,30.01,NE,46,0.0,0.0,100,0.01,,---,0.00,VWS V14.01,2013-08-25 04:09:00,
2013-08-25 00:14:00,77.4,77.4,30.01,NE,46,0.0,0.0,100,0.01,,---,0.00,VWS V14.01,2013-08-25 04:14:00,
2013-08-25 00:19:00,77.2,77.2,30.00,NE,46,0.0,0.0,100,0.01,,---,0.00,VWS V14.01,2013-08-25 04:19:00,
2013-08-25 00:24:00,77.2,77.2,30.00,NE,46,0.0,0.0,100,0.01,,---,0.00,VWS V14.01,2013-08-25 04:24:00,
2013-08-25 00:29:00,77.2,77.2,30.00,NE,46,0.0,0.0,100,0.01,,---,0.00,VWS V14.01,2013-08-25 04:29:00,
2013-08-25 00:34:00,77.2,77.2,29.99,NE,46,0.0,0.0,100,0.00,,---,0.00,VWS V14.01,2013-08-25 04:34:00,
2013-08-25 00:39:00,77.2,77.2,29.99,NE,46,0.0,0.0,100,0.00,,---,0.00,VWS V14.01,2013-08-25 04:39:00,
2013-08-25 00:44:00,77.2,77.2,29.99,NE,46,0.0,0.0,100,0.00,,---,0.00,VWS V14.01,2013-08-25 04:44:00,
2013-08-25 00:49:00,77.2,77.2,30.00,NE,46,0.0,0.0,100,0.00,,---,0.00,VWS V14.01,2013-08-25 04:49:00,
2013-08-25 00:55:00,77.2,77.2,30.00,NE,46,0.0,0.0,100,0.00,,---,0.00,VWS V14.01,2013-08-25 04:55:00,
2013-08-25 01:00:00,77.2,77.2,30.00,NE,46,0.0,0.0,100,0.00,,---,0.00,VWS V14.01,2013-08-25 05:00:00,
2013-08-25 01:05:00,77.2,77.2,30.00,NE,46,0.0,0.0,100,0.00,,---,0.00,VWS V14.01,2013-08-25 05:05:00,
2013-08-25 01:10:00,77.0,77.0,30.00,NE,46,3.0,3.0,100,0.00,,---,0.00,VWS V14.01,2013-08-25 05:10:00,
2013-08-25 01:15:00,77.2,77.2,30.00,NE,49,4.0,4.0,100,0.00,,---,0.00,VWS V14.01,2013-08-25 05:15:00,
2013-08-25 01:20:00,77.2,77.2,29.97,NE,51,5.0,5.0,100,0.00,,---,0.00,VWS V14.01,2013-08-25 05:20:00,
2013-08-25 01:25:00,77.2,77.2,29.97,NE,51,3.0,5.0,100,0.00,,---,0.00,VWS V14.01,2013-08-25 05:25:00,
2013-08-25 01:30:00,77.2,77.2,29.97,NE,51,0.0,5.0,100,0.00,,---,0.00,VWS V14.01,2013-08-25 05:30:00,
2013-08-25 01:35:00,77.4,77.4,29.98,NE,51,1.0,3.0,100,0.00,,---,0.00,VWS V14.01,2013-08-25 05:35:00,
2013-08-25 01:40:00,77.6,77.6,29.98,NE,51,0.0,3.0,100,0.00,,---,0.00,VWS V14.01,2013-08-25 05:40:00,
2013-08-25 01:45:00,77.6,77.6,29.98,NE,51,0.0,3.0,100,0.00,,---,0.00,VWS V14.01,2013-08-25 05:45:00,
2013-08-25 01:50:00,77.6,77.6,29.97,NE,51,0.0,3.0,100,0.00,,---,0.00,VWS V14.01,2013-08-25 05:50:00,
2013-08-25 01:55:00,77.7,77.7,29.97,NE,51,0.0,3.0,100,0.00,,---,0.00,VWS V14.01,2013-08-25 05:55:00,
2013-08-25 02:01:00,77.7,77.7,29.97,NE,51,0.0,3.0,100,0.00,,---,0.00,VWS V14.01,2013-08-25 06:01:00,
2013-08-25 02:06:00,77.9,77.9,29.97,NE,51,0.0,0.0,100,0.00,,---,0.00,VWS V14.01,2013-08-25 06:06:00,
2013-08-25 02:11:00,77.9,77.9,29.97,NE,51,0.0,0.0,100,0.00,,---,0.00,VWS V14.01,2013-08-25 06:11:00,
2013-08-25 02:16:00,77.9,77.9,29.97,NE,51,0.0,0.0,100,0.00,,---,0.00,VWS V14.01,2013-08-25 06:16:00,
2013-08-25 02:21:00,77.9,77.9,29.97,NE,51,0.0,0.0,100,0.00,,---,0.00,VWS V14.01,2013-08-25 06:21:00,
2013-08-25 02:26:00,77.9,77.9,29.97,NE,51,0.0,0.0,100,0.00,,---,0.00,VWS V14.01,2013-08-25 06:26:00,
2013-08-25 02:31:00,77.9,77.9,29.97,NE,51,0.0,0.0,100,0.00,,---,0.00,VWS V14.01,2013-08-25 06:31:00,
2013-08-25 02:36:00,77.9,77.9,29.97,NE,51,0.0,0.0,100,0.00,,---,0.00,VWS V14.01,2013-08-25 06:36:00,
2013-08-25 02:41:00,77.9,77.9,29.97,NE,51,0.0,0.0,100,0.00,,---,0.00,VWS V14.01,2013-08-25 06:41:00,
2013-08-25 02:46:00,77.9,77.9,29.97,NE,51,0.0,0.0,100,0.00,,---,0.00,VWS V14.01,2013-08-25 06:46:00,
2013-08-25 02:51:00,77.9,77.9,29.97,NE,51,0.0,0.0,100,0.00,,---,0.00,VWS V14.01,2013-08-25 06:51:00,
2013-08-25 02:56:00,77.9,77.9,29.97,NE,51,0.0,0.0,100,0.00,,---,0.00,VWS V14.01,2013-08-25 06:56:00,
2013-08-25 03:01:00,77.9,77.9,29.97,NE,51,0.0,0.0,100,0.00,,---,0.00,VWS V14.01,2013-08-25 07:01:00,
2013-08-25 03:07:00,77.9,77.9,29.97,NE,51,0.0,0.0,100,0.00,,---,0.00,VWS V14.01,2013-08-25 07:07:00,
2013-08-25 03:12:00,77.9,77.9,29.97,NE,51,0.0,0.0,100,0.00,,---,0.00,VWS V14.01,2013-08-25 07:12:00,
2013-08-25 03:17:00,77.9,77.9,29.97,NE,51,0.0,0.0,100,0.00,,---,0.00,VWS V14.01,2013-08-25 07:17:00,
2013-08-25 03:22:00,77.9,77.9,29.97,NE,51,0.0,0.0,100,0.00,,---,0.00,VWS V14.01,2013-08-25 07:22:00,
2013-08-25 03:27:00,77.9,77.9,29.97,NE,51,0.0,0.0,100,0.00,,---,0.00,VWS V14.01,2013-08-25 07:27:00,
2013-08-25 03:32:00,77.9,77.9,29.97,NE,51,0.0,0.0,100,0.00,,---,0.00,VWS V14.01,2013-08-25 07:32:00,
2013-08-25 03:37:00,77.9,77.9,29.97,NE,51,0.0,0.0,100,0.00,,---,0.00,VWS V14.01,2013-08-25 07:37:00,
2013-08-25 03:42:00,77.9,77.9,29.97,NE,51,1.0,2.0,100,0.00,,---,0.00,VWS V14.01,2013-08-25 07:42:00,
2013-08-25 03:47:00,77.9,77.9,29.97,NE,51,1.0,2.0,100,0.00,,---,0.00,VWS V14.01,2013-08-25 07:47:00,
2013-08-25 03:52:00,77.9,77.9,29.97,NE,51,1.0,2.0,100,0.01,,---,0.01,VWS V14.01,2013-08-25 07:52:00,
2013-08-25 03:57:00,77.7,77.7,29.97,NE,51,0.0,2.0,100,0.01,,---,0.01,VWS V14.01,2013-08-25 07:57:00,
2013-08-25 04:02:00,77.7,77.7,29.97,NE,51,0.0,2.0,100,0.01,,---,0.01,VWS V14.01,2013-08-25 08:02:00,
2013-08-25 04:07:00,77.6,77.6,29.97,NE,51,2.0,3.0,100,0.01,,---,0.01,VWS V14.01,2013-08-25 08:07:00,
2013-08-25 04:12:00,77.4,77.4,29.97,NE,51,1.0,3.0,100,0.01,,---,0.01,VWS V14.01,2013-08-25 08:12:00,
2013-08-25 04:17:00,77.4,77.4,29.97,NE,51,2.0,3.0,100,0.01,,---,0.01,VWS V14.01,2013-08-25 08:17:00,
2013-08-25 04:22:00,77.4,77.4,29.97,NE,51,1.0,3.0,100,0.01,,---,0.01,VWS V14.01,2013-08-25 08:22:00,
2013-08-25 04:27:00,77.4,77.4,29.97,NE,51,0.0,3.0,100,0.01,,---,0.01,VWS V14.01,2013-08-25 08:27:00,
2013-08-25 04:32:00,77.4,77.4,29.97,NE,51,0.0,3.0,100,0.01,,---,0.01,VWS V14.01,2013-08-25 08:32:00,
2013-08-25 04:38:00,77.4,77.4,29.97,NE,51,0.0,1.0,100,0.01,,---,0.01,VWS V14.01,2013-08-25 08:38:00,
2013-08-25 04:43:00,77.4,77.4,29.97,NE,51,0.0,1.0,100,0.01,,---,0.01,VWS V14.01,2013-08-25 08:43:00,
2013-08-25 04:48:00,77.4,77.4,29.97,NE,51,0.0,2.0,100,0.01,,---,0.01,VWS V14.01,2013-08-25 08:48:00,
2013-08-25 04:53:00,77.4,77.4,29.97,NE,51,0.0,2.0,100,0.01,,---,0.01,VWS V14.01,2013-08-25 08:53:00,
2013-08-25 04:58:00,77.4,77.4,29.97,NE,51,0.0,2.0,100,0.01,,---,0.01,VWS V14.01,2013-08-25 08:58:00,
2013-08-25 05:03:00,77.4,77.4,29.98,NE,51,0.0,2.0,100,0.01,,---,0.01,VWS V14.01,2013-08-25 09:03:00,
2013-08-25 05:08:00,77.4,77.4,29.98,NE,51,0.0,0.0,100,0.00,,---,0.01,VWS V14.01,2013-08-25 09:08:00,
2013-08-25 05:13:00,77.4,77.4,29.98,NE,51,1.0,1.0,100,0.00,,---,0.01,VWS V14.01,2013-08-25 09:13:00,
2013-08-25 05:18:00,77.4,77.4,29.99,NE,51,1.0,2.0,100,0.00,,---,0.01,VWS V14.01,2013-08-25 09:18:00,
2013-08-25 05:23:00,77.6,77.6,29.99,NE,51,0.0,2.0,100,0.00,,---,0.01,VWS V14.01,2013-08-25 09:23:00,
2013-08-25 05:28:00,77.6,77.6,29.99,NE,51,0.0,3.0,100,0.00,,---,0.01,VWS V14.01,2013-08-25 09:28:00,
2013-08-25 05:33:00,77.6,77.6,29.99,NE,45,1.0,4.0,100,0.00,,---,0.01,VWS V14.01,2013-08-25 09:33:00,
2013-08-25 05:38:00,77.6,77.6,29.99,NE,45,2.0,3.0,100,0.00,,---,0.01,VWS V14.01,2013-08-25 09:38:00,
2013-08-25 05:43:00,77.6,77.6,29.99,NE,45,0.0,3.0,100,0.00,,---,0.01,VWS V14.01,2013-08-25 09:43:00,
2013-08-25 05:48:00,77.6,77.6,30.00,NE,45,0.0,3.0,100,0.00,,---,0.01,VWS V14.01,2013-08-25 09:48:00,
2013-08-25 05:53:00,77.6,77.6,30.00,NE,45,2.0,3.0,100,0.00,,---,0.01,VWS V14.01,2013-08-25 09:53:00,
2013-08-25 05:58:00,77.6,77.6,30.00,NE,41,2.0,4.0,100,0.00,,---,0.01,VWS V14.01,2013-08-25 09:58:00,
2013-08-25 06:03:00,77.6,77.6,30.01,NE,40,1.0,4.0,100,0.00,,---,0.01,VWS V14.01,2013-08-25 10:03:00,
2013-08-25 06:08:00,77.7,77.7,30.01,NE,40,2.0,3.0,100,0.00,,---,0.01,VWS V14.01,2013-08-25 10:08:00,
2013-08-25 06:13:00,77.7,77.7,30.01,NE,40,1.0,3.0,100,0.00,,---,0.01,VWS V14.01,2013-08-25 10:13:00,
2013-08-25 06:18:00,77.7,77.7,30.00,NE,38,0.0,3.0,100,0.00,,---,0.01,VWS V14.01,2013-08-25 10:18:00,
2013-08-25 06:23:00,77.6,77.6,30.00,NE,37,3.0,3.0,100,0.00,,---,0.01,VWS V14.01,2013-08-25 10:23:00,
2013-08-25 06:28:00,77.6,77.6,30.00,NE,37,0.0,4.0,100,0.00,,---,0.01,VWS V14.01,2013-08-25 10:28:00,
2013-08-25 06:34:00,77.4,77.4,30.01,NE,35,0.0,4.0,100,0.00,,---,0.01,VWS V14.01,2013-08-25 10:34:00,
2013-08-25 06:39:00,77.4,77.4,30.01,NE,35,0.0,0.0,100,0.00,,---,0.01,VWS V14.01,2013-08-25 10:39:00,
2013-08-25 06:44:00,77.4,77.4,30.01,NE,34,1.0,3.0,100,0.00,,---,0.01,VWS V14.01,2013-08-25 10:44:00,
2013-08-25 06:49:00,77.4,77.4,30.02,WSW,252,1.0,4.0,100,0.00,,---,0.01,VWS V14.01,2013-08-25 10:49:00,
2013-08-25 06:54:00,77.2,77.2,30.02,WSW,252,0.0,4.0,100,0.00,,---,0.01,VWS V14.01,2013-08-25 10:54:00,
2013-08-25 06:59:00,77.2,77.2,30.02,WSW,252,3.0,4.0,100,0.00,,---,0.01,VWS V14.01,2013-08-25 10:59:00,
2013-08-25 07:04:00,77.2,77.2,30.02,WSW,252,0.0,4.0,100,0.00,,---,0.01,VWS V14.01,2013-08-25 11:04:00,
2013-08-25 07:09:00,77.2,77.2,30.02,WSW,252,0.0,2.0,100,0.00,,---,0.01,VWS V14.01,2013-08-25 11:09:00,
2013-08-25 07:14:00,77.2,77.2,30.02,WSW,252,0.0,3.0,100,0.00,,---,0.01,VWS V14.01,2013-08-25 11:14:00,
2013-08-25 07:19:00,77.2,77.2,30.03,WSW,252,0.0,3.0,100,0.00,,---,0.01,VWS V14.01,2013-08-25 11:19:00,
2013-08-25 07:24:00,77.2,77.2,30.03,WSW,252,0.0,3.0,100,0.00,,---,0.01,VWS V14.01,2013-08-25 11:24:00,
2013-08-25 07:29:00,77.2,77.2,30.03,WSW,252,0.0,3.0,100,0.00,,---,0.01,VWS V14.01,2013-08-25 11:29:00,
2013-08-25 07:34:00,77.2,77.2,30.03,WSW,252,3.0,3.0,100,0.00,,---,0.01,VWS V14.01,2013-08-25 11:34:00,
2013-08-25 07:39:00,77.2,77.2,30.03,WSW,252,1.0,3.0,100,0.00,,---,0.01,VWS V14.01,2013-08-25 11:39:00,
2013-08-25 07:44:00,77.2,77.2,30.03,WSW,252,2.0,3.0,100,0.00,,---,0.01,VWS V14.01,2013-08-25 11:44:00,
2013-08-25 07:49:00,77.4,77.4,30.03,WSW,252,2.0,3.0,100,0.00,,---,0.01,VWS V14.01,2013-08-25 11:49:00,
2013-08-25 07:55:00,77.4,77.4,30.03,WSW,252,1.0,3.0,100,0.00,,---,0.01,VWS V14.01,2013-08-25 11:55:00,
2013-08-25 08:00:00,77.4,77.4,30.03,WSW,254,2.0,4.0,100,0.00,,---,0.01,VWS V14.01,2013-08-25 12:00:00,
2013-08-25 08:05:00,77.4,77.4,30.05,WSW,256,6.0,6.0,100,0.00,,---,0.01,VWS V14.01,2013-08-25 12:05:00,
2013-08-25 08:10:00,77.6,77.6,30.05,West,260,3.0,6.0,100,0.00,,---,0.01,VWS V14.01,2013-08-25 12:10:00,
2013-08-25 08:15:00,77.6,77.6,30.05,NW,308,2.0,6.0,100,0.00,,---,0.01,VWS V14.01,2013-08-25 12:15:00,
2013-08-25 08:20:00,77.4,77.4,30.05,West,280,9.0,9.0,100,0.00,,---,0.01,VWS V14.01,2013-08-25 12:20:00,
2013-08-25 08:25:00,76.8,76.8,30.05,WNW,284,3.0,10.0,100,0.00,,---,0.01,VWS V14.01,2013-08-25 12:25:00,
2013-08-25 08:30:00,76.5,76.5,30.05,West,278,3.0,10.0,100,0.00,,---,0.01,VWS V14.01,2013-08-25 12:30:00,
2013-08-25 08:35:00,76.7,76.7,30.05,NW,323,3.0,3.0,100,0.00,,---,0.01,VWS V14.01,2013-08-25 12:35:00,
2013-08-25 08:40:00,76.7,76.7,30.05,NW,321,1.0,4.0,100,0.00,,---,0.01,VWS V14.01,2013-08-25 12:40:00,
2013-08-25 08:45:00,76.7,76.7,30.05,NW,321,5.0,5.0,100,0.01,,---,0.02,VWS V14.01,2013-08-25 12:45:00,
2013-08-25 08:50:00,76.8,76.8,30.05,NW,321,2.0,5.0,100,0.02,,---,0.03,VWS V14.01,2013-08-25 12:50:00,
2013-08-25 08:55:00,76.8,76.8,30.05,NNW,333,3.0,6.0,100,0.02,,---,0.03,VWS V14.01,2013-08-25 12:55:00,
2013-08-25 09:00:00,76.7,76.7,30.05,NNW,342,4.0,7.0,100,0.03,,---,0.04,VWS V14.01,2013-08-25 13:00:00,
2013-08-25 09:05:00,76.5,76.5,30.05,NNW,346,2.0,7.0,100,0.03,,---,0.04,VWS V14.01,2013-08-25 13:05:00,
2013-08-25 09:10:00,76.5,76.5,30.05,NNW,346,3.0,7.0,100,0.03,,---,0.04,VWS V14.01,2013-08-25 13:10:00,
2013-08-25 09:15:00,76.5,76.5,30.05,NNW,343,3.0,7.0,100,0.03,,---,0.04,VWS V14.01,2013-08-25 13:15:00,
2013-08-25 09:20:00,76.5,76.5,30.05,NNW,342,2.0,7.0,100,0.04,,---,0.05,VWS V14.01,2013-08-25 13:20:00,
2013-08-25 09:26:00,76.7,76.7,30.05,NNW,342,6.0,7.0,100,0.05,,---,0.06,VWS V14.01,2013-08-25 13:26:00,
2013-08-25 09:31:00,76.7,76.7,30.05,NNW,342,4.0,9.0,100,0.06,,---,0.07,VWS V14.01,2013-08-25 13:31:00,
2013-08-25 09:36:00,76.8,76.8,30.06,NNW,344,5.0,10.0,100,0.07,,---,0.08,VWS V14.01,2013-08-25 13:36:00,
2013-08-25 09:41:00,77.0,77.0,30.06,NNW,341,5.0,10.0,100,0.08,,---,0.09,VWS V14.01,2013-08-25 13:41:00,
2013-08-25 09:46:00,77.0,77.0,30.06,NNW,344,3.0,10.0,100,0.09,,---,0.10,VWS V14.01,2013-08-25 13:46:00,
2013-08-25 09:51:00,77.0,77.0,30.07,NNW,342,4.0,10.0,100,0.10,,---,0.11,VWS V14.01,2013-08-25 13:51:00,
2013-08-25 09:56:00,77.2,77.2,30.07,NNW,344,2.0,10.0,100,0.10,,---,0.11,VWS V14.01,2013-08-25 13:56:00,
2013-08-25 10:01:00,77.2,77.2,30.07,NNW,344,0.0,10.0,100,0.11,,---,0.12,VWS V14.01,2013-08-25 14:01:00,
2013-08-25 10:06:00,77.2,77.2,30.08,NNW,344,3.0,6.0,100,0.08,,---,0.12,VWS V14.01,2013-08-25 14:06:00,
2013-08-25 10:11:00,77.0,77.0,30.08,NNW,344,7.0,7.0,100,0.09,,---,0.13,VWS V14.01,2013-08-25 14:11:00,
2013-08-25 10:16:00,76.8,76.8,30.08,NNW,344,0.0,7.0,100,0.09,,---,0.13,VWS V14.01,2013-08-25 14:16:00,
2013-08-25 10:21:00,76.8,76.8,30.08,NNW,344,1.0,7.0,100,0.09,,---,0.13,VWS V14.01,2013-08-25 14:21:00,
2013-08-25 10:26:00,76.8,76.8,30.08,NNW,344,1.0,7.0,100,0.09,,---,0.13,VWS V14.01,2013-08-25 14:26:00,
2013-08-25 10:31:00,76.7,76.7,30.08,NNW,345,0.0,7.0,100,0.09,,---,0.13,VWS V14.01,2013-08-25 14:31:00,
2013-08-25 10:36:00,76.8,76.8,30.08,NNW,346,0.0,3.0,100,0.06,,---,0.14,VWS V14.01,2013-08-25 14:36:00,
2013-08-25 10:41:00,76.8,76.8,30.08,NNW,346,0.0,3.0,100,0.06,,---,0.14,VWS V14.01,2013-08-25 14:41:00,
2013-08-25 10:46:00,77.0,77.0,30.08,NNW,346,2.0,3.0,100,0.06,,---,0.14,VWS V14.01,2013-08-25 14:46:00,
2013-08-25 10:52:00,77.0,77.0,30.08,NNW,346,0.0,3.0,100,0.06,,---,0.14,VWS V14.01,2013-08-25 14:52:00,
2013-08-25 10:57:00,77.0,77.0,30.08,NNW,346,0.0,3.0,100,0.07,,---,0.15,VWS V14.01,2013-08-25 14:57:00,
2013-08-25 11:02:00,77.0,77.0,30.08,NNW,346,2.0,4.0,100,0.07,,---,0.15,VWS V14.01,2013-08-25 15:02:00,
2013-08-25 11:07:00,77.0,77.0,30.08,NNW,346,2.0,2.0,100,0.03,,---,0.15,VWS V14.01,2013-08-25 15:07:00,
2013-08-25 11:12:00,77.2,77.2,30.08,NNW,346,0.0,2.0,100,0.04,,---,0.16,VWS V14.01,2013-08-25 15:12:00,
2013-08-25 11:17:00,77.4,77.4,30.08,NNW,348,2.0,5.0,100,0.04,,---,0.16,VWS V14.01,2013-08-25 15:17:00,
2013-08-25 11:22:00,77.6,77.6,30.08,North,5,2.0,5.0,100,0.04,,---,0.16,VWS V14.01,2013-08-25 15:22:00,
2013-08-25 11:27:00,77.7,77.7,30.08,NNE,12,1.0,5.0,100,0.04,,---,0.16,VWS V14.01,2013-08-25 15:27:00,
2013-08-25 11:32:00,77.9,77.9,30.08,NNE,13,1.0,5.0,100,0.04,,---,0.16,VWS V14.01,2013-08-25 15:32:00,
2013-08-25 11:37:00,77.9,77.9,30.08,NE,39,0.0,6.0,100,0.02,,---,0.16,VWS V14.01,2013-08-25 15:37:00,
2013-08-25 11:42:00,78.1,78.1,30.08,NE,44,3.0,6.0,100,0.03,,---,0.17,VWS V14.01,2013-08-25 15:42:00,
2013-08-25 11:47:00,78.1,78.1,30.08,NE,44,2.0,6.0,100,0.03,,---,0.17,VWS V14.01,2013-08-25 15:47:00,
2013-08-25 11:52:00,78.3,78.3,30.08,NE,44,0.0,6.0,100,0.03,,---,0.17,VWS V14.01,2013-08-25 15:52:00,
2013-08-25 11:57:00,78.5,78.5,30.08,NE,44,4.0,6.0,100,0.03,,---,0.17,VWS V14.01,2013-08-25 15:57:00,
2013-08-25 12:02:00,78.5,78.5,30.08,NE,44,1.0,6.0,100,0.03,,---,0.17,VWS V14.01,2013-08-25 16:02:00,
2013-08-25 12:07:00,79.0,79.0,30.08,NE,44,0.0,3.0,100,0.02,,---,0.17,VWS V14.01,2013-08-25 16:07:00,
2013-08-25 12:12:00,79.2,79.2,30.08,NE,44,1.0,3.0,100,0.03,,---,0.18,VWS V14.01,2013-08-25 16:12:00,
2013-08-25 12:17:00,79.6,79.6,30.08,NE,44,0.0,3.0,100,0.03,,---,0.18,VWS V14.01,2013-08-25 16:17:00,
2013-08-25 12:22:00,79.9,79.9,30.08,NE,45,2.0,5.0,100,0.03,,---,0.18,VWS V14.01,2013-08-25 16:22:00,
2013-08-25 12:27:00,79.9,79.9,30.08,NE,44,0.0,5.0,100,0.03,,---,0.18,VWS V14.01,2013-08-25 16:27:00,
2013-08-25 12:32:00,79.9,79.9,30.08,NE,44,3.0,5.0,100,0.03,,---,0.18,VWS V14.01,2013-08-25 16:32:00,
2013-08-25 12:38:00,79.9,79.9,30.07,NE,44,2.0,4.0,100,0.02,,---,0.18,VWS V14.01,2013-08-25 16:38:00,
2013-08-25 12:43:00,79.9,79.9,30.07,NE,55,2.0,6.0,100,0.02,,---,0.18,VWS V14.01,2013-08-25 16:43:00,
2013-08-25 12:48:00,79.8,79.8,30.07,ENE,67,3.0,6.0,100,0.02,,---,0.18,VWS V14.01,2013-08-25 16:48:00,
2013-08-25 12:53:00,79.8,79.8,30.07,ENE,67,10.0,10.0,100,0.02,,---,0.18,VWS V14.01,2013-08-25 16:53:00,
2013-08-25 12:58:00,79.9,79.9,30.07,NE,49,3.0,10.0,100,0.02,,---,0.18,VWS V14.01,2013-08-25 16:58:00,
2013-08-25 13:03:00,80.1,79.8,30.06,NE,46,4.0,10.0,99,0.02,,---,0.18,VWS V14.01,2013-08-25 17:03:00,
2013-08-25 13:08:00,80.3,79.7,30.06,NE,51,2.0,5.0,98,0.01,,---,0.18,VWS V14.01,2013-08-25 17:08:00,
2013-08-25 13:13:00,80.5,79.6,30.06,ENE,78,3.0,5.0,97,0.01,,---,0.18,VWS V14.01,2013-08-25 17:13:00,
2013-08-25 13:18:00,80.9,79.7,30.05,ENE,78,1.0,5.0,96,0.01,,---,0.18,VWS V14.01,2013-08-25 17:18:00,
2013-08-25 13:23:00,81.1,79.2,30.05,ENE,74,4.0,6.0,94,0.01,,---,0.18,VWS V14.01,2013-08-25 17:23:00,
2013-08-25 13:28:00,81.2,78.7,30.05,ENE,67,5.0,6.0,92,0.01,,---,0.18,VWS V14.01,2013-08-25 17:28:00,
2013-08-25 13:33:00,81.6,78.4,30.05,ENE,59,5.0,7.0,90,0.01,,---,0.18,VWS V14.01,2013-08-25 17:33:00,
2013-08-25 13:38:00,82.2,78.6,30.05,East,86,5.0,9.0,89,0.00,,---,0.18,VWS V14.01,2013-08-25 17:38:00,
2013-08-25 13:43:00,82.4,78.5,30.05,East,86,7.0,9.0,88,0.00,,---,0.18,VWS V14.01,2013-08-25 17:43:00,
2013-08-25 13:48:00,82.6,78.0,30.05,ENE,58,5.0,9.0,86,0.00,,---,0.18,VWS V14.01,2013-08-25 17:48:00,
2013-08-25 13:53:00,82.8,77.8,30.05,East,82,4.0,9.0,85,0.00,,---,0.18,VWS V14.01,2013-08-25 17:53:00,
2013-08-25 13:58:00,83.2,77.9,30.05,ENE,64,2.0,9.0,84,0.00,,---,0.18,VWS V14.01,2013-08-25 17:58:00,
2013-08-25 14:03:00,83.4,78.1,30.03,ENE,64,3.0,9.0,84,0.00,,---,0.18,VWS V14.01,2013-08-25 18:03:00,
2013-08-25 14:09:00,83.6,77.5,30.03,ENE,64,6.0,9.0,82,0.00,,---,0.18,VWS V14.01,2013-08-25 18:09:00,
2013-08-25 14:14:00,83.8,77.3,30.03,ENE,60,2.0,9.0,81,0.00,,---,0.18,VWS V14.01,2013-08-25 18:14:00,
2013-08-25 14:19:00,84.1,76.9,30.02,East,79,6.0,9.0,79,0.00,,---,0.18,VWS V14.01,2013-08-25 18:19:00,
2013-08-25 14:24:00,84.5,76.9,30.02,ENE,78,2.0,9.0,78,0.00,,---,0.18,VWS V14.01,2013-08-25 18:24:00,
2013-08-25 14:29:00,84.9,77.7,30.02,ENE,78,4.0,9.0,79,0.00,,---,0.18,VWS V14.01,2013-08-25 18:29:00,
2013-08-25 14:34:00,84.9,76.1,30.02,East,84,3.0,9.0,75,0.00,,---,0.18,VWS V14.01,2013-08-25 18:34:00,
2013-08-25 14:39:00,85.3,76.5,30.02,East,85,4.0,5.0,75,0.00,,---,0.18,VWS V14.01,2013-08-25 18:39:00,
2013-08-25 14:44:00,85.7,76.5,30.02,East,87,6.0,6.0,74,0.00,,---,0.18,VWS V14.01,2013-08-25 18:44:00,
2013-08-25 14:49:00,85.9,76.7,30.02,East,81,2.0,7.0,74,0.00,,---,0.18,VWS V14.01,2013-08-25 18:49:00,
2013-08-25 14:54:00,86.3,77.0,30.02,East,86,2.0,7.0,74,0.00,,---,0.18,VWS V14.01,2013-08-25 18:54:00,
2013-08-25 14:59:00,86.7,77.0,30.02,East,88,4.0,7.0,73,0.00,,---,0.18,VWS V14.01,2013-08-25 18:59:00,
2013-08-25 15:04:00,87.0,76.9,30.01,East,79,3.0,3.0,72,0.00,,---,0.18,VWS V14.01,2013-08-25 19:04:00,
2013-08-25 15:09:00,87.0,76.5,30.01,ENE,73,4.0,6.0,71,0.00,,---,0.18,VWS V14.01,2013-08-25 19:09:00,
2013-08-25 15:14:00,87.4,76.0,30.01,East,95,5.0,9.0,69,0.00,,---,0.18,VWS V14.01,2013-08-25 19:14:00,
2013-08-25 15:19:00,87.4,75.1,30.00,ENE,69,7.0,9.0,67,0.00,,---,0.18,VWS V14.01,2013-08-25 19:19:00,
2013-08-25 15:24:00,87.4,75.1,30.00,ENE,60,1.0,9.0,67,0.00,,---,0.18,VWS V14.01,2013-08-25 19:24:00,
2013-08-25 15:29:00,87.4,75.6,30.00,NE,55,5.0,9.0,68,0.00,,---,0.18,VWS V14.01,2013-08-25 19:29:00,
2013-08-25 15:34:00,87.4,75.1,29.99,ENE,67,5.0,5.0,67,0.00,,---,0.18,VWS V14.01,2013-08-25 19:34:00,
2013-08-25 15:40:00,87.2,75.4,29.99,East,82,4.0,6.0,68,0.00,,---,0.18,VWS V14.01,2013-08-25 19:40:00,
2013-08-25 15:45:00,87.8,76.4,29.99,ENE,69,1.0,9.0,69,0.00,,---,0.18,VWS V14.01,2013-08-25 19:45:00,
2013-08-25 15:50:00,88.4,76.5,29.98,ENE,76,9.0,9.0,68,0.00,,---,0.18,VWS V14.01,2013-08-25 19:50:00,
2013-08-25 15:55:00,88.6,75.8,29.98,ENE,77,7.0,9.0,66,0.00,,---,0.18,VWS V14.01,2013-08-25 19:55:00,
2013-08-25 16:00:00,88.6,75.8,29.98,ENE,58,5.0,9.0,66,0.00,,---,0.18,VWS V14.01,2013-08-25 20:00:00,
2013-08-25 16:05:00,88.6,75.3,29.98,East,86,3.0,6.0,65,0.00,,---,0.18,VWS V14.01,2013-08-25 20:05:00,
2013-08-25 16:10:00,88.2,75.0,29.98,ENE,74,4.0,9.0,65,0.00,,---,0.18,VWS V14.01,2013-08-25 20:10:00,
2013-08-25 16:15:00,87.8,74.1,29.98,ENE,71,3.0,9.0,64,0.00,,---,0.18,VWS V14.01,2013-08-25 20:15:00,
2013-08-25 16:20:00,87.6,75.3,29.99,ENE,71,3.0,9.0,67,0.00,,---,0.18,VWS V14.01,2013-08-25 20:20:00,
2013-08-25 16:25:00,87.4,75.6,29.99,ENE,63,5.0,9.0,68,0.00,,---,0.18,VWS V14.01,2013-08-25 20:25:00,
2013-08-25 16:30:00,87.2,75.4,29.99,ENE,65,4.0,9.0,68,0.00,,---,0.18,VWS V14.01,2013-08-25 20:30:00,
2013-08-25 16:35:00,87.2,75.4,29.99,ENE,66,2.0,5.0,68,0.00,,---,0.18,VWS V14.01,2013-08-25 20:35:00,
2013-08-25 16:40:00,87.4,76.0,29.99,ENE,66,8.0,8.0,69,0.00,,---,0.18,VWS V14.01,2013-08-25 20:40:00,
2013-08-25 16:45:00,87.4,75.1,29.99,NE,44,10.0,10.0,67,0.00,,---,0.18,VWS V14.01,2013-08-25 20:45:00,
2013-08-25 16:50:00,87.4,75.6,29.99,East,88,2.0,10.0,68,0.00,,---,0.18,VWS V14.01,2013-08-25 20:50:00,
2013-08-25 16:55:00,87.4,75.1,29.99,East,96,4.0,10.0,67,0.00,,---,0.18,VWS V14.01,2013-08-25 20:55:00,
2013-08-25 17:01:00,87.4,75.6,29.99,ESE,113,2.0,10.0,68,0.00,,---,0.18,VWS V14.01,2013-08-25 21:01:00,
2013-08-25 17:06:00,87.2,75.8,29.99,East,94,6.0,6.0,69,0.00,,---,0.18,VWS V14.01,2013-08-25 21:06:00,
2013-08-25 17:11:00,87.0,75.2,29.99,ESE,104,2.0,7.0,68,0.00,,---,0.18,VWS V14.01,2013-08-25 21:11:00,
2013-08-25 17:16:00,86.7,75.3,29.99,NE,56,5.0,7.0,69,0.00,,---,0.18,VWS V14.01,2013-08-25 21:16:00,
2013-08-25 17:21:00,87.0,74.7,29.99,ENE,70,4.0,7.0,67,0.00,,---,0.18,VWS V14.01,2013-08-25 21:21:00,
2013-08-25 17:26:00,87.2,74.9,29.99,ESE,113,3.0,7.0,67,0.00,,---,0.18,VWS V14.01,2013-08-25 21:26:00,
2013-08-25 17:31:00,87.2,74.5,29.99,East,84,3.0,9.0,66,0.00,,---,0.18,VWS V14.01,2013-08-25 21:31:00,
2013-08-25 17:36:00,87.0,74.7,29.99,ENE,74,1.0,4.0,67,0.00,,---,0.18,VWS V14.01,2013-08-25 21:36:00,
2013-08-25 17:41:00,86.7,75.3,29.99,East,81,0.0,7.0,69,0.00,,---,0.18,VWS V14.01,2013-08-25 21:41:00,
2013-08-25 17:46:00,86.5,75.1,29.99,ENE,61,4.0,9.0,69,0.00,,---,0.18,VWS V14.01,2013-08-25 21:46:00,
2013-08-25 17:51:00,86.3,75.4,30.00,ENE,74,2.0,10.0,70,0.00,,---,0.18,VWS V14.01,2013-08-25 21:51:00,
2013-08-25 17:56:00,86.1,75.6,30.00,ENE,59,9.0,10.0,71,0.00,,---,0.18,VWS V14.01,2013-08-25 21:56:00,
2013-08-25 18:01:00,85.7,75.2,30.00,ENE,71,4.0,10.0,71,0.00,,---,0.18,VWS V14.01,2013-08-25 22:01:00,
2013-08-25 18:06:00,85.3,75.2,30.00,ENE,69,3.0,6.0,72,0.00,,---,0.18,VWS V14.01,2013-08-25 22:06:00,
2013-08-25 18:11:00,85.1,75.5,30.00,NE,49,5.0,6.0,73,0.00,,---,0.18,VWS V14.01,2013-08-25 22:11:00,
2013-08-25 18:17:00,84.9,75.3,30.00,ENE,71,3.0,8.0,73,0.00,,---,0.18,VWS V14.01,2013-08-25 22:17:00,
2013-08-25 18:22:00,84.7,75.1,30.00,ENE,76,2.0,8.0,73,0.00,,---,0.18,VWS V14.01,2013-08-25 22:22:00,
2013-08-25 18:27:00,84.5,74.5,30.00,NE,44,4.0,8.0,72,0.00,,---,0.18,VWS V14.01,2013-08-25 22:27:00,
2013-08-25 18:32:00,84.3,74.3,30.00,NE,54,3.0,8.0,72,0.00,,---,0.18,VWS V14.01,2013-08-25 22:32:00,
2013-08-25 18:37:00,84.3,74.7,30.00,East,94,3.0,4.0,73,0.00,,---,0.18,VWS V14.01,2013-08-25 22:37:00,
2013-08-25 18:42:00,84.1,74.5,30.00,ENE,74,5.0,8.0,73,0.00,,---,0.18,VWS V14.01,2013-08-25 22:42:00,
2013-08-25 18:47:00,84.0,74.4,30.00,ENE,57,3.0,8.0,73,0.00,,---,0.18,VWS V14.01,2013-08-25 22:47:00,
2013-08-25 18:52:00,84.0,74.8,30.00,ENE,57,2.0,8.0,74,0.00,,---,0.18,VWS V14.01,2013-08-25 22:52:00,
2013-08-25 18:57:00,83.8,75.0,30.00,ENE,57,5.0,8.0,75,0.00,,---,0.18,VWS V14.01,2013-08-25 22:57:00,
2013-08-25 19:02:00,83.6,74.8,30.00,NE,53,3.0,8.0,75,0.00,,---,0.18,VWS V14.01,2013-08-25 23:02:00,
2013-08-25 19:07:00,83.4,74.2,30.00,NE,51,6.0,6.0,74,0.00,,---,0.18,VWS V14.01,2013-08-25 23:07:00,
2013-08-25 19:12:00,83.4,74.2,30.00,NE,51,4.0,6.0,74,0.00,,---,0.18,VWS V14.01,2013-08-25 23:12:00,
2013-08-25 19:17:00,83.4,74.2,30.00,NE,53,4.0,6.0,74,0.00,,---,0.18,VWS V14.01,2013-08-25 23:17:00,
2013-08-25 19:22:00,83.2,74.1,30.00,NE,53,5.0,6.0,74,0.00,,---,0.18,VWS V14.01,2013-08-25 23:22:00,
2013-08-25 19:28:00,83.2,74.1,30.00,NE,54,3.0,6.0,74,0.00,,---,0.18,VWS V14.01,2013-08-25 23:28:00,
2013-08-25 19:33:00,83.0,74.3,30.00,NE,54,2.0,6.0,75,0.00,,---,0.18,VWS V14.01,2013-08-25 23:33:00,
2013-08-25 19:38:00,83.0,74.3,30.00,NE,54,1.0,3.0,75,0.00,,---,0.18,VWS V14.01,2013-08-25 23:38:00,
2013-08-25 19:44:00,82.8,74.1,30.00,NE,54,1.0,3.0,75,0.00,,---,0.18,VWS V14.01,2013-08-25 23:44:00,
2013-08-25 19:49:00,82.8,74.1,30.00,NE,54,0.0,3.0,75,0.00,,---,0.18,VWS V14.01,2013-08-25 23:49:00,
2013-08-25 19:54:00,82.8,74.1,30.00,NE,54,1.0,3.0,75,0.00,,---,0.18,VWS V14.01,2013-08-25 23:54:00,
2013-08-25 19:59:00,82.6,73.9,30.00,NE,54,4.0,4.0,75,0.00,,---,0.18,VWS V14.01,2013-08-25 23:59:00,
2013-08-25 20:04:00,82.6,74.3,30.02,NE,54,2.0,2.0,76,0.00,,---,0.18,VWS V14.01,2013-08-26 00:04:00,
2013-08-25 20:10:00,82.6,74.3,30.02,NE,54,0.0,3.0,76,0.00,,---,0.18,VWS V14.01,2013-08-26 00:10:00,
2013-08-25 20:15:00,82.4,74.1,30.02,NE,54,1.0,3.0,76,0.00,,---,0.18,VWS V14.01,2013-08-26 00:15:00,
2013-08-25 20:20:00,82.4,74.5,30.02,NE,54,2.0,3.0,77,0.00,,---,0.18,VWS V14.01,2013-08-26 00:20:00,
2013-08-25 20:26:00,82.4,74.1,30.02,NE,54,3.0,3.0,76,0.00,,---,0.18,VWS V14.01,2013-08-26 00:26:00,
2013-08-25 20:31:00,82.2,73.9,30.02,NE,54,0.0,3.0,76,0.00,,---,0.18,VWS V14.01,2013-08-26 00:31:00,
2013-08-25 20:36:00,82.2,73.9,30.02,NE,54,1.0,1.0,76,0.00,,---,0.18,VWS V14.01,2013-08-26 00:36:00,
2013-08-25 20:42:00,82.2,74.3,30.02,NE,54,0.0,3.0,77,0.00,,---,0.18,VWS V14.01,2013-08-26 00:42:00,
2013-08-25 20:47:00,82.2,74.3,30.02,NE,54,2.0,3.0,77,0.00,,---,0.18,VWS V14.01,2013-08-26 00:47:00,
2013-08-25 20:52:00,82.2,74.7,30.03,NE,54,0.0,3.0,78,0.00,,---,0.18,VWS V14.01,2013-08-26 00:52:00,
2013-08-25 20:57:00,82.2,75.0,30.03,NE,54,0.0,3.0,79,0.00,,---,0.18,VWS V14.01,2013-08-26 00:57:00,
2013-08-25 21:03:00,82.2,75.4,30.03,NE,54,2.0,3.0,80,0.00,,---,0.18,VWS V14.01,2013-08-26 01:03:00,
2013-08-25 21:08:00,82.2,75.8,30.03,NE,54,0.0,2.0,81,0.00,,---,0.18,VWS V14.01,2013-08-26 01:08:00,
2013-08-25 21:14:00,82.2,75.8,30.03,NE,54,0.0,2.0,81,0.00,,---,0.18,VWS V14.01,2013-08-26 01:14:00,
2013-08-25 21:19:00,82.0,75.6,30.03,NE,54,0.0,2.0,81,0.00,,---,0.18,VWS V14.01,2013-08-26 01:19:00,
2013-08-25 21:24:00,82.0,76.0,30.03,NE,54,0.0,4.0,82,0.00,,---,0.18,VWS V14.01,2013-08-26 01:24:00,
2013-08-25 21:32:00,82.0,76.0,30.03,NE,54,2.0,4.0,82,0.00,,---,0.18,VWS V14.01,2013-08-26 01:32:00,
2013-08-25 21:37:00,81.8,75.8,30.04,NE,54,0.0,3.0,82,0.00,,---,0.18,VWS V14.01,2013-08-26 01:37:00,
2013-08-25 21:42:00,81.8,75.8,30.04,NE,54,2.0,3.0,82,0.00,,---,0.18,VWS V14.01,2013-08-26 01:42:00,
2013-08-25 21:47:00,81.8,75.8,30.04,NE,54,0.0,4.0,82,0.00,,---,0.18,VWS V14.01,2013-08-26 01:47:00,
2013-08-25 21:52:00,81.8,76.1,30.05,NE,54,0.0,4.0,83,0.00,,---,0.18,VWS V14.01,2013-08-26 01:52:00,
2013-08-25 21:57:00,81.8,76.1,30.05,NE,54,0.0,4.0,83,0.00,,---,0.18,VWS V14.01,2013-08-26 01:57:00,
2013-08-25 22:03:00,81.6,75.9,30.05,NE,54,1.0,4.0,83,0.00,,---,0.18,VWS V14.01,2013-08-26 02:03:00,
2013-08-25 22:08:00,81.6,75.9,30.05,NE,54,3.0,3.0,83,0.00,,---,0.18,VWS V14.01,2013-08-26 02:08:00,
2013-08-25 22:13:00,81.6,75.9,30.05,NE,54,0.0,3.0,83,0.00,,---,0.18,VWS V14.01,2013-08-26 02:13:00,
2013-08-25 22:18:00,81.6,75.9,30.05,NE,54,0.0,3.0,83,0.00,,---,0.18,VWS V14.01,2013-08-26 02:18:00,
2013-08-25 22:23:00,81.6,76.3,30.05,NE,54,0.0,3.0,84,0.00,,---,0.18,VWS V14.01,2013-08-26 02:23:00,
2013-08-25 22:29:00,81.6,76.3,30.05,NE,54,0.0,3.0,84,0.00,,---,0.18,VWS V14.01,2013-08-26 02:29:00,
2013-08-25 22:34:00,81.4,76.1,30.05,NE,54,0.0,3.0,84,0.00,,---,0.18,VWS V14.01,2013-08-26 02:34:00,
2013-08-25 22:39:00,81.4,76.1,30.05,NE,54,0.0,0.0,84,0.00,,---,0.18,VWS V14.01,2013-08-26 02:39:00,
2013-08-25 22:44:00,81.4,76.1,30.05,NE,54,3.0,3.0,84,0.00,,---,0.18,VWS V14.01,2013-08-26 02:44:00,
2013-08-25 22:50:00,81.4,76.1,30.05,NE,54,1.0,3.0,84,0.00,,---,0.18,VWS V14.01,2013-08-26 02:50:00,
2013-08-25 22:55:00,81.2,75.9,30.05,NE,54,0.0,3.0,84,0.00,,---,0.18,VWS V14.01,2013-08-26 02:55:00,
2013-08-25 23:00:00,81.2,75.9,30.05,NE,54,0.0,3.0,84,0.00,,---,0.18,VWS V14.01,2013-08-26 03:00:00,
2013-08-25 23:06:00,81.2,76.3,30.05,NE,54,0.0,0.0,85,0.00,,---,0.18,VWS V14.01,2013-08-26 03:06:00,
2013-08-25 23:11:00,81.2,76.3,30.05,NE,54,1.0,2.0,85,0.00,,---,0.18,VWS V14.01,2013-08-26 03:11:00,
2013-08-25 23:16:00,81.2,76.3,30.05,NE,54,0.0,2.0,85,0.00,,---,0.18,VWS V14.01,2013-08-26 03:16:00,
2013-08-25 23:22:00,81.2,76.3,30.05,NE,54,0.0,2.0,85,0.00,,---,0.18,VWS V14.01,2013-08-26 03:22:00,
2013-08-25 23:27:00,81.1,76.2,30.05,NE,54,0.0,2.0,85,0.00,,---,0.18,VWS V14.01,2013-08-26 03:27:00,
2013-08-25 23:32:00,81.1,76.5,30.05,NE,54,0.0,2.0,86,0.00,,---,0.18,VWS V14.01,2013-08-26 03:32:00,
2013-08-25 23:38:00,81.1,76.5,30.05,NE,54,0.0,1.0,86,0.00,,---,0.18,VWS V14.01,2013-08-26 03:38:00,
2013-08-25 23:43:00,81.1,76.5,30.05,NE,54,0.0,1.0,86,0.00,,---,0.18,VWS V14.01,2013-08-26 03:43:00,
2013-08-25 23:48:00,81.1,76.9,30.06,NE,54,0.0,2.0,87,0.00,,---,0.18,VWS V14.01,2013-08-26 03:48:00,
2013-08-25 23:54:00,81.1,76.9,30.06,NE,54,0.0,3.0,87,0.00,,---,0.18,VWS V14.01,2013-08-26 03:54:00,
2013-08-25 23:59:00,80.9,76.7,30.06,NE,54,0.0,3.0,87,0.00,,---,0.18,VWS V14.01,2013-08-26 03:59:00,